Terug naar catalogus

COSMOS 2251 DEB

ActiefLEO
NORAD 34003·DEBRIS·🇷🇺 Russia

Gelanceerd Jun 16, 1993 vanaf Plesetsk Cosmodrome

Loading…

Volgende Passages (komende 24 uur)

TLE

VersSource: Space-Track

Epoch: Sep 14, 2026, 04:39 UTC

1 34003U 93036GN  26257.19429911  .00001172  00000-0  78356-3 0  9992
2 34003  74.0773 181.0028 0276666 229.0819 128.6056 13.85128740882380

Volg COSMOS 2251 DEB in realtime met AllMySat

Download on the App Store